STARLINK-4303 (53544 NORAD) Tracking and Keplerian Element Data

This shows tracking and keplerian element data for the satellite.

Feedback or suggestion? Click here.




ElementValue
Catalog53544
NameSTARLINK-4303
Epoch Orbit1504
Epoch Day324.58282673
Epoch Year2022
RAAN74.0551
Inclination53.2185
Eccentricity0.0001736
Argument of Perigee46.2312
Mean Anonmoly313.8824
Mean Motion15.088432
Decay Rate2.055E-05
L11 53544U 22101T 22324.58282673 .00002055 00000+0 14718-3 0 9996
L22 53544 53.2185 74.0551 0001736 46.2312 313.8824 15.08843200 15044



Live tracking and technical data element details for STARLINK-4303 (NORAD 53544). STARLINK-4303 can be tracked NOW for your location showing map with azimuth and elevation plus other details from your city location.







IsCatalogInMostPopularTable: catalog: 53544, numindb: 3
Update: records affected: 1



GetName: 53544 STARLINK-4303

Hit Count: updated at: Thu, 08 Dec 2022 20:20:45 GMT